When you browse on this site, cookies collect data to enhance your experience and personalize the content and advertising you see.
Visit our Privacy Policy to learn more. By continuing to use the site, you agree to this use of cookies and data.
  • Em Portugal
  • Lista de países
  • Para 7 dias
  • Temperatura da água
  • Mapas de satélite
  • Mapa do tempo
  • Widgets de tempo
  • user-avatar
    Iniciar Sessão

    Previsão horária em Isfahan

    Hoje, 24 Março, Domingo

    Tempo Temperatura Precipitação Vento Pressão Humidade
    00:00 +13°C° 0 mm 1 m/s 629 mmHg 37%
    01:00 +12°C° 0 mm 1 m/s 628 mmHg 38%
    02:00 +12°C° 0 mm 1 m/s 628 mmHg 39%
    03:00 +11°C° 0 mm 1 m/s 627 mmHg 44%
    04:00 +11°C° 0 mm 1 m/s 628 mmHg 44%
    05:00 +11°C° 0 mm 1 m/s 628 mmHg 45%
    06:00 +10°C° 0 mm 1 m/s 628 mmHg 45%
    07:00 +11°C° 0 mm 1 m/s 628 mmHg 42%
    08:00 +11°C° 0 mm 0 m/s 628 mmHg 39%
    09:00 +13°C° 0 mm 0 m/s 629 mmHg 38%
    10:00 +15°C° 0 mm 1 m/s 629 mmHg 35%
    11:00 +16°C° 0 mm 2 m/s 629 mmHg 33%
    12:00 +17°C° 0 mm 3 m/s 628 mmHg 31%
    13:00 +18°C° 0 mm 3 m/s 628 mmHg 28%
    14:00 +18°C° 0 mm 3 m/s 628 mmHg 26%
    15:00 +19°C° 0 mm 4 m/s 627 mmHg 25%
    16:00 +19°C° 0 mm 3 m/s 627 mmHg 25%
    17:00 +19°C° 0 mm 3 m/s 627 mmHg 25%
    18:00 +18°C° 0 mm 3 m/s 627 mmHg 25%
    19:00 +18°C° 0 mm 2 m/s 627 mmHg 27%
    20:00 +17°C° 0 mm 2 m/s 627 mmHg 29%
    21:00 +18°C° 0 mm 1 m/s 627 mmHg 31%
    22:00 +16°C° 0 mm 2 m/s 627 mmHg 33%
    23:00 +16°C° 0 mm 2 m/s 627 mmHg 35%

    Amanhã, 25 Março, Segunda-feira

    Tempo Temperatura Precipitação Vento Pressão Humidade
    00:00 +14°C° 0 mm 3 m/s 627 mmHg 38%
    01:00 +14°C° 0.1 mm 3 m/s 626 mmHg 40%
    02:00 +13°C° 0.1 mm 4 m/s 626 mmHg 43%
    03:00 +13°C° 0.1 mm 4 m/s 625 mmHg 45%
    04:00 +13°C° 0.2 mm 3 m/s 625 mmHg 48%
    05:00 +14°C° 0.2 mm 2 m/s 625 mmHg 50%
    06:00 +13°C° 0.2 mm 1 m/s 625 mmHg 53%
    07:00 +14°C° 0 mm 3 m/s 626 mmHg 47%
    08:00 +15°C° 0 mm 4 m/s 626 mmHg 42%
    09:00 +16°C° 0 mm 6 m/s 626 mmHg 36%
    10:00 +18°C° 0.1 mm 7 m/s 626 mmHg 34%
    11:00 +20°C° 0.1 mm 8 m/s 626 mmHg 33%
    12:00 +21°C° 0.1 mm 9 m/s 626 mmHg 31%
    13:00 +22°C° 0.2 mm 10 m/s 626 mmHg 30%
    14:00 +22°C° 0.2 mm 12 m/s 626 mmHg 30%
    15:00 +23°C° 0.2 mm 13 m/s 625 mmHg 29%
    16:00 +22°C° 0 mm 11 m/s 625 mmHg 32%
    17:00 +21°C° 0 mm 10 m/s 625 mmHg 36%
    18:00 +20°C° 0 mm 8 m/s 625 mmHg 39%
    19:00 +18°C° 0.2 mm 7 m/s 625 mmHg 43%
    20:00 +17°C° 0.2 mm 6 m/s 626 mmHg 47%
    21:00 +17°C° 0.2 mm 4 m/s 626 mmHg 52%
    22:00 +17°C° 0.1 mm 4 m/s 626 mmHg 54%
    23:00 +17°C° 0.1 mm 4 m/s 626 mmHg 57%

    Depois de amanhã, 26 Março, Terça-feira

    Tempo Temperatura Precipitação Vento Pressão Humidade
    00:00 +16°C° 0.1 mm 3 m/s 626 mmHg 60%
    01:00 +16°C° 0.5 mm 3 m/s 626 mmHg 61%
    02:00 +15°C° 0.5 mm 2 m/s 626 mmHg 62%
    03:00 +15°C° 0.5 mm 2 m/s 626 mmHg 63%
    04:00 +14°C° 0.9 mm 2 m/s 626 mmHg 67%
    05:00 +13°C° 0.9 mm 3 m/s 626 mmHg 70%
    06:00 +13°C° 0.9 mm 4 m/s 626 mmHg 74%
    07:00 +13°C° 1.7 mm 3 m/s 626 mmHg 74%
    08:00 +14°C° 1.7 mm 2 m/s 626 mmHg 74%
    09:00 +14°C° 1.7 mm 1 m/s 626 mmHg 74%
    10:00 +15°C° 0.1 mm 5 m/s 627 mmHg 60%
    11:00 +18°C° 0.1 mm 8 m/s 627 mmHg 45%
    12:00 +21°C° 0.1 mm 11 m/s 628 mmHg 31%
    13:00 +21°C° 0 mm 11 m/s 627 mmHg 31%
    14:00 +19°C° 0 mm 11 m/s 627 mmHg 32%
    15:00 +19°C° 0 mm 12 m/s 626 mmHg 32%
    16:00 +18°C° 0 mm 11 m/s 626 mmHg 33%
    17:00 +17°C° 0 mm 10 m/s 626 mmHg 34%
    18:00 +15°C° 0 mm 9 m/s 626 mmHg 35%
    19:00 +15°C° 0 mm 7 m/s 626 mmHg 35%
    20:00 +14°C° 0 mm 5 m/s 627 mmHg 36%
    21:00 +13°C° 0 mm 4 m/s 628 mmHg 37%
    22:00 +13°C° 0 mm 3 m/s 628 mmHg 39%
    23:00 +12°C° 0 mm 3 m/s 628 mmHg 41%

    27 Março, Quarta-feira

    Tempo Temperatura Precipitação Vento Pressão Humidade
    00:00 +12°C° 0 mm 3 m/s 628 mmHg 42%
    01:00 +12°C° 0 mm 2 m/s 628 mmHg 45%
    02:00 +12°C° 0 mm 2 m/s 628 mmHg 47%
    03:00 +11°C° 0 mm 1 m/s 628 mmHg 49%
    04:00 +11°C° 0 mm 1 m/s 628 mmHg 50%
    05:00 +10°C° 0 mm 1 m/s 628 mmHg 51%
    06:00 +9°C° 0 mm 0 m/s 628 mmHg 52%
    07:00 +11°C° 0 mm 1 m/s 629 mmHg 47%
    08:00 +12°C° 0 mm 2 m/s 630 mmHg 41%
    09:00 +12°C° 0 mm 3 m/s 630 mmHg 35%
    10:00 +13°C° 0 mm 3 m/s 630 mmHg 30%
    11:00 +15°C° 0 mm 4 m/s 630 mmHg 25%
    12:00 +17°C° 0 mm 4 m/s 630 mmHg 21%
    13:00 +17°C° 0 mm 4 m/s 630 mmHg 19%
    14:00 +18°C° 0 mm 4 m/s 630 mmHg 17%
    15:00 +19°C° 0 mm 5 m/s 630 mmHg 15%
    16:00 +17°C° 0 mm 5 m/s 630 mmHg 17%
    17:00 +16°C° 0 mm 5 m/s 630 mmHg 18%
    18:00 +17°C° 0 mm 4 m/s 630 mmHg 19%
    19:00 +15°C° 0 mm 4 m/s 631 mmHg 22%
    20:00 +14°C° 0 mm 4 m/s 631 mmHg 24%
    21:00 +13°C° 0 mm 3 m/s 631 mmHg 26%
    22:00 +13°C° 0 mm 3 m/s 631 mmHg 29%
    23:00 +12°C° 0 mm 3 m/s 631 mmHg 32%

    28 Março, Quinta-feira

    Tempo Temperatura Precipitação Vento Pressão Humidade
    00:00 +13°C° 0 mm 2 m/s 631 mmHg 34%
    01:00 +12°C° 0 mm 2 m/s 630 mmHg 37%
    02:00 +12°C° 0 mm 2 m/s 630 mmHg 40%
    03:00 +10°C° 0 mm 2 m/s 630 mmHg 43%
    04:00 +10°C° 0 mm 2 m/s 630 mmHg 44%
    05:00 +10°C° 0 mm 1 m/s 630 mmHg 46%
    06:00 +10°C° 0 mm 1 m/s 630 mmHg 48%
    07:00 +11°C° 0 mm 1 m/s 630 mmHg 44%
    08:00 +12°C° 0 mm 1 m/s 631 mmHg 41%
    09:00 +13°C° 0 mm 1 m/s 631 mmHg 38%
    10:00 +14°C° 0 mm 1 m/s 631 mmHg 33%
    11:00 +15°C° 0 mm 1 m/s 631 mmHg 29%
    12:00 +16°C° 0 mm 1 m/s 631 mmHg 24%
    13:00 +16°C° 0 mm 1 m/s 630 mmHg 23%
    14:00 +16°C° 0 mm 2 m/s 630 mmHg 21%
    15:00 +17°C° 0 mm 2 m/s 630 mmHg 20%
    16:00 +16°C° 0.1 mm 3 m/s 630 mmHg 23%
    17:00 +14°C° 0.1 mm 3 m/s 630 mmHg 27%
    18:00 +13°C° 0.1 mm 3 m/s 629 mmHg 31%
    19:00 +13°C° 0.1 mm 3 m/s 630 mmHg 32%
    20:00 +13°C° 0.1 mm 3 m/s 630 mmHg 34%
    21:00 +12°C° 0.1 mm 3 m/s 630 mmHg 36%
    22:00 +12°C° 0.1 mm 4 m/s 630 mmHg 39%
    23:00 +10°C° 0.1 mm 5 m/s 629 mmHg 43%

    29 Março, Sexta-feira

    Tempo Temperatura Precipitação Vento Pressão Humidade
    00:00 +9°C° 0.1 mm 7 m/s 629 mmHg 47%
    01:00 +9°C° 0 mm 6 m/s 629 mmHg 46%
    02:00 +8°C° 0 mm 4 m/s 629 mmHg 46%
    03:00 +9°C° 0 mm 3 m/s 629 mmHg 46%
    04:00 +9°C° 0 mm 3 m/s 630 mmHg 47%
    05:00 +9°C° 0 mm 2 m/s 630 mmHg 47%
    06:00 +9°C° 0 mm 2 m/s 630 mmHg 48%
    07:00 +9°C° 0 mm 2 m/s 631 mmHg 44%
    08:00 +11°C° 0 mm 1 m/s 631 mmHg 40%
    09:00 +12°C° 0 mm 1 m/s 631 mmHg 36%
    10:00 +13°C° 0 mm 1 m/s 631 mmHg 32%
    11:00 +14°C° 0 mm 1 m/s 630 mmHg 28%
    12:00 +15°C° 0 mm 1 m/s 630 mmHg 24%
    13:00 +15°C° 0 mm 1 m/s 630 mmHg 22%
    14:00 +16°C° 0 mm 1 m/s 630 mmHg 20%
    15:00 +17°C° 0 mm 2 m/s 630 mmHg 17%
    16:00 +16°C° 0 mm 2 m/s 630 mmHg 18%
    17:00 +16°C° 0 mm 2 m/s 630 mmHg 18%
    18:00 +16°C° 0 mm 3 m/s 630 mmHg 19%
    19:00 +16°C° 0 mm 2 m/s 631 mmHg 20%
    20:00 +15°C° 0 mm 2 m/s 631 mmHg 22%
    21:00 +15°C° 0 mm 1 m/s 631 mmHg 24%
    22:00 +14°C° 0 mm 1 m/s 631 mmHg 25%
    23:00 +14°C° 0 mm 1 m/s 631 mmHg 26%
    Mostrar mais